| time (UTC) | temp F | wind direction | speed knots | gust knots | rain 1hr in | rain 24hr in | rain mn in | humidity % | barometer mb |
| 20260831175020 | 84 | 67 | 1.7 | 4.3 | 0.00 | 0.00 | 0.00 | 16 | 1017.6 |
| 20260831174519 | 83 | 348 | 1.7 | 4.3 | 0.00 | 0.00 | 0.00 | 17 | 1017.6 |
| 20260831174018 | 83 | 74 | 0.9 | 4.3 | 0.00 | 0.00 | 0.00 | 16 | 1017.6 |
| 20260831173518 | 82 | 288 | 1.7 | 4.3 | 0.00 | 0.00 | 0.00 | 16 | 1017.6 |
| 20260831173022 | 82 | 20 | 1.7 | 3.5 | 0.00 | 0.00 | 0.00 | 17 | 1017.6 |
| 20260831172515 | 81 | 346 | 1.7 | 3.5 | 0.00 | 0.00 | 0.00 | 18 | 1017.7 |
| 20260831172019 | 81 | 355 | 0.0 | 4.3 | 0.00 | 0.00 | 0.00 | 19 | 1017.7 |
| 20260831171515 | 80 | 360 | 2.6 | 4.3 | 0.00 | 0.00 | 0.00 | 19 | 1017.8 |
| 20260831171012 | 80 | 14 | 1.7 | 4.3 | 0.00 | 0.00 | 0.00 | 19 | 1017.8 |
| 20260831170511 | 79 | 63 | 1.7 | 4.3 | 0.00 | 0.00 | 0.00 | 20 | 1017.7 |
| 20260831170009 | 78 | 31 | 1.7 | 4.3 | 0.00 | 0.00 | 0.00 | 21 | 1017.7 |
| 20260831165508 | 77 | 24 | 0.9 | 5.2 | 0.00 | 0.00 | 0.00 | 21 | 1017.8 |
| 20260831165006 | 76 | 345 | 0.0 | 5.2 | 0.00 | 0.00 | 0.00 | 23 | 1017.7 |
| 20260831164506 | 76 | 350 | 2.6 | 5.2 | 0.00 | 0.00 | 0.00 | 22 | 1017.8 |
| 20260831164004 | 74 | 5 | 2.6 | 5.2 | 0.00 | 0.00 | 0.00 | 23 | 1017.8 |
| 20260831163504 | 73 | 259 | 0.9 | 6.1 | 0.00 | 0.00 | 0.00 | 24 | 1017.8 |
| 20260831163007 | 73 | 38 | 2.6 | 6.1 | 0.00 | 0.00 | 0.00 | 24 | 1017.8 |
| 20260831162504 | 72 | 271 | 0.9 | 7.0 | 0.00 | 0.00 | 0.00 | 25 | 1017.8 |
| 20260831162003 | 72 | 258 | 3.5 | 7.8 | 0.00 | 0.00 | 0.00 | 25 | 1017.8 |
| 20260831161503 | 72 | 238 | 3.5 | 7.8 | 0.00 | 0.00 | 0.00 | 25 | 1017.9 |
| 20260831161003 | 72 | 206 | 1.7 | 7.0 | 0.00 | 0.00 | 0.00 | 24 | 1017.9 |
| 20260831160505 | 73 | 17 | 0.0 | 2.6 | 0.00 | 0.00 | 0.00 | 25 | 1017.9 |
| 20260831160001 | 72 | 46 | 0.0 | 2.6 | 0.00 | 0.00 | 0.00 | 26 | 1018.1 |
| 20260831155602 | 71 | 47 | 0.9 | 2.6 | 0.00 | 0.00 | 0.00 | 26 | 1018.2 |
| 20260831155059 | 70 | 15 | 0.0 | 1.7 | 0.00 | 0.00 | 0.00 | 26 | 1018.2 |
| 20260831154619 | 70 | 44 | 0.0 | 1.7 | 0.00 | 0.00 | 0.00 | 27 | 1018.3 |
| 20260831154057 | 69 | 46 | 0.0 | 2.6 | 0.00 | 0.00 | 0.00 | 27 | 1018.3 |
| 20260831153556 | 68 | 33 | 0.9 | 3.5 | 0.00 | 0.00 | 0.00 | 27 | 1018.3 |
| 20260831153058 | 68 | 38 | 0.0 | 3.5 | 0.00 | 0.00 | 0.00 | 27 | 1018.3 |
| 20260831152558 | 67 | 49 | 0.0 | 1.7 | 0.00 | 0.00 | 0.00 | 27 | 1018.3 |
| 20260831152056 | 66 | 44 | 0.0 | 1.7 | 0.00 | 0.00 | 0.00 | 27 | 1018.4 |
| 20260831151610 | 66 | 44 | 0.0 | 1.7 | 0.00 | 0.00 | 0.00 | 28 | 1018.4 |
| 20260831151056 | 65 | 40 | 0.0 | 1.7 | 0.00 | 0.00 | 0.00 | 28 | 1018.4 |
| 20260831150556 | 64 | 40 | 0.0 | 1.7 | 0.00 | 0.00 | 0.00 | 28 | 1018.4 |
| 20260831150056 | 64 | 41 | 0.0 | 1.7 | 0.00 | 0.00 | 0.00 | 27 | 1018.4 |
| 20260831145555 | 63 | 55 | 0.0 | 1.7 | 0.00 | 0.00 | 0.00 | 27 | 1018.4 |
| 20260831145054 | 63 | 59 | 0.0 | 1.7 | 0.00 | 0.00 | 0.00 | 27 | 1018.4 |
| 20260831144554 | 62 | 51 | 0.0 | 1.7 | 0.00 | 0.00 | 0.00 | 27 | 1018.3 |
| 20260831144054 | 61 | 57 | 0.0 | 1.7 | 0.00 | 0.00 | 0.00 | 28 | 1018.2 |
| 20260831143554 | 61 | 37 | 0.9 | 1.7 | 0.00 | 0.00 | 0.00 | 29 | 1018.2 |
| 20260831143105 | 61 | 30 | 0.0 | 1.7 | 0.00 | 0.00 | 0.00 | 30 | 1018.2 |
| 20260831142554 | 61 | 46 | 0.0 | 1.7 | 0.00 | 0.00 | 0.00 | 30 | 1018.2 |
| 20260831142057 | 61 | 31 | 0.0 | 2.6 | 0.00 | 0.00 | 0.00 | 31 | 1018.2 |
| 20260831141553 | 62 | 355 | 0.0 | 3.5 | 0.00 | 0.00 | 0.00 | 30 | 1018.1 |
| 20260831141053 | 63 | 34 | 0.9 | 7.0 | 0.00 | 0.00 | 0.00 | 29 | 1018.1 |
| 20260831140552 | 65 | 64 | 0.9 | 7.8 | 0.00 | 0.00 | 0.00 | 28 | 1018.1 |
| 20260831140052 | 65 | 248 | 3.5 | 10.4 | 0.00 | 0.00 | 0.00 | 28 | 1017.9 |
| 20260831135552 | 65 | 259 | 3.5 | 10.4 | 0.00 | 0.00 | 0.00 | 28 | 1017.8 |
| 20260831135052 | 65 | 240 | 6.1 | 10.4 | 0.00 | 0.00 | 0.00 | 28 | 1017.8 |
| 20260831134558 | 64 | 238 | 4.3 | 10.4 | 0.00 | 0.00 | 0.00 | 28 | 1017.8 |
| 20260831134050 | 64 | 252 | 4.3 | 11.3 | 0.00 | 0.00 | 0.00 | 28 | 1017.8 |
| 20260831133550 | 64 | 236 | 5.2 | 11.3 | 0.00 | 0.00 | 0.00 | 28 | 1017.7 |
| 20260831133050 | 65 | 250 | 5.2 | 10.4 | 0.00 | 0.00 | 0.00 | 27 | 1017.6 |
| 20260831132552 | 65 | 262 | 4.3 | 9.6 | 0.00 | 0.00 | 0.00 | 27 | 1017.6 |
| 20260831132050 | 65 | 246 | 3.5 | 9.6 | 0.00 | 0.00 | 0.00 | 28 | 1017.6 |
| 20260831131606 | 65 | 212 | 2.6 | 7.0 | 0.00 | 0.00 | 0.00 | 28 | 1017.5 |
| 20260831131049 | 65 | 172 | 1.7 | 7.8 | 0.00 | 0.00 | 0.00 | 28 | 1017.6 |
| 20260831130549 | 65 | 49 | 2.6 | 7.8 | 0.00 | 0.00 | 0.00 | 27 | 1017.5 |
| 20260831130105 | 65 | 208 | 0.9 | 5.2 | 0.00 | 0.00 | 0.00 | 27 | 1017.5 |
| 20260831125549 | 65 | 304 | 0.9 | 7.0 | 0.00 | 0.00 | 0.00 | 27 | 1017.5 |
| 20260831125048 | 66 | 271 | 0.9 | 7.8 | 0.00 | 0.00 | 0.00 | 26 | 1017.5 |
| 20260831124551 | 66 | 253 | 2.6 | 8.7 | 0.00 | 0.00 | 0.00 | 26 | 1017.5 |
| 20260831124048 | 66 | 217 | 3.5 | 8.7 | 0.00 | 0.00 | 0.00 | 26 | 1017.5 |
| 20260831123548 | 66 | 238 | 3.5 | 10.4 | 0.00 | 0.00 | 0.00 | 26 | 1017.5 |
| 20260831123050 | 66 | 238 | 3.5 | 10.4 | 0.00 | 0.00 | 0.00 | 26 | 1017.5 |
| 20260831122547 | 66 | 232 | 5.2 | 10.4 | 0.00 | 0.00 | 0.00 | 26 | 1017.5 |
| 20260831122047 | 66 | 208 | 5.2 | 9.6 | 0.00 | 0.00 | 0.00 | 26 | 1017.5 |
| 20260831121552 | 66 | 211 | 3.5 | 7.8 | 0.00 | 0.00 | 0.00 | 25 | 1017.5 |
| 20260831121047 | 66 | 244 | 3.5 | 7.8 | 0.00 | 0.00 | 0.00 | 25 | 1017.5 |
| 20260831120547 | 66 | 193 | 4.3 | 7.8 | 0.00 | 0.00 | 0.00 | 25 | 1017.5 |
| 20260831120046 | 66 | 208 | 3.5 | 8.7 | 0.00 | 0.00 | 0.00 | 25 | 1017.6 |
| 20260831115545 | 66 | 252 | 3.5 | 8.7 | 0.00 | 0.00 | 0.00 | 25 | 1017.7 |
| 20260831115045 | 66 | 234 | 2.6 | 7.0 | 0.00 | 0.00 | 0.00 | 26 | 1017.7 |
| 20260831114544 | 66 | 205 | 2.6 | 5.2 | 0.00 | 0.00 | 0.00 | 25 | 1017.8 |
| 20260831114044 | 66 | 180 | 3.5 | 5.2 | 0.00 | 0.00 | 0.00 | 25 | 1017.8 |
| 20260831113544 | 66 | 228 | 2.6 | 7.8 | 0.00 | 0.00 | 0.00 | 25 | 1017.8 |
| 20260831113044 | 66 | 237 | 3.5 | 8.7 | 0.00 | 0.00 | 0.00 | 25 | 1017.9 |
| 20260831112543 | 67 | 232 | 3.5 | 8.7 | 0.00 | 0.00 | 0.00 | 25 | 1017.9 |
| 20260831112045 | 67 | 230 | 4.3 | 9.6 | 0.00 | 0.00 | 0.00 | 25 | 1017.9 |
| 20260831111543 | 67 | 236 | 6.1 | 9.6 | 0.00 | 0.00 | 0.00 | 25 | 1018.0 |
| 20260831111042 | 67 | 236 | 4.3 | 9.6 | 0.00 | 0.00 | 0.00 | 25 | 1018.1 |
| 20260831110542 | 67 | 226 | 4.3 | 8.7 | 0.00 | 0.00 | 0.00 | 25 | 1018.0 |
| 20260831110043 | 67 | 217 | 3.5 | 8.7 | 0.00 | 0.00 | 0.00 | 25 | 1018.1 |
| 20260831105541 | 67 | 231 | 4.3 | 7.8 | 0.00 | 0.00 | 0.00 | 25 | 1018.1 |
| 20260831105041 | 67 | 256 | 4.3 | 7.8 | 0.00 | 0.00 | 0.00 | 25 | 1018.1 |
| 20260831104541 | 67 | 256 | 2.6 | 6.1 | 0.00 | 0.00 | 0.00 | 25 | 1018.2 |
| 20260831104040 | 67 | 268 | 1.7 | 6.1 | 0.00 | 0.00 | 0.00 | 25 | 1018.2 |
| 20260831103543 | 67 | 259 | 1.7 | 6.1 | 0.00 | 0.00 | 0.00 | 24 | 1018.2 |
| 20260831103044 | 67 | 229 | 2.6 | 7.0 | 0.00 | 0.00 | 0.00 | 24 | 1018.3 |
| 20260831102539 | 67 | 248 | 2.6 | 6.1 | 0.00 | 0.00 | 0.00 | 25 | 1018.3 |
| 20260831102040 | 67 | 222 | 1.7 | 7.0 | 0.00 | 0.00 | 0.00 | 25 | 1018.2 |
| 20260831101539 | 67 | 283 | 3.5 | 7.0 | 0.00 | 0.00 | 0.00 | 24 | 1018.2 |
| 20260831101039 | 67 | 261 | 2.6 | 7.0 | 0.00 | 0.00 | 0.00 | 25 | 1018.2 |
| 20260831100539 | 67 | 258 | 4.3 | 7.0 | 0.00 | 0.00 | 0.00 | 24 | 1018.2 |
| 20260831100058 | 67 | 268 | 4.3 | 7.0 | 0.00 | 0.00 | 0.00 | 25 | 1018.2 |
| 20260831095538 | 67 | 270 | 1.7 | 3.5 | 0.00 | 0.00 | 0.00 | 25 | 1018.2 |
| 20260831095037 | 68 | 279 | 0.9 | 3.5 | 0.00 | 0.00 | 0.00 | 24 | 1018.2 |
| 20260831094537 | 68 | 254 | 1.7 | 5.2 | 0.00 | 0.00 | 0.00 | 24 | 1018.2 |
| 20260831094037 | 68 | 236 | 1.7 | 6.1 | 0.00 | 0.00 | 0.00 | 23 | 1018.2 |
| 20260831093537 | 69 | 229 | 3.5 | 7.8 | 0.00 | 0.00 | 0.00 | 23 | 1018.3 |
| 20260831093045 | 69 | 243 | 4.3 | 7.8 | 0.00 | 0.00 | 0.00 | 23 | 1018.3 |
| 20260831092537 | 69 | 253 | 2.6 | 8.7 | 0.00 | 0.00 | 0.00 | 23 | 1018.2 |
| 20260831092036 | 69 | 239 | 3.5 | 11.3 | 0.00 | 0.00 | 0.00 | 22 | 1018.2 |
| 20260831091538 | 70 | 238 | 4.3 | 11.3 | 0.00 | 0.00 | 0.00 | 22 | 1018.2 |
| 20260831091035 | 70 | 215 | 4.3 | 9.6 | 0.00 | 0.00 | 0.00 | 22 | 1018.2 |
| 20260831090535 | 70 | 216 | 5.2 | 10.4 | 0.00 | 0.00 | 0.00 | 22 | 1018.2 |
| 20260831090035 | 70 | 229 | 5.2 | 9.6 | 0.00 | 0.00 | 0.00 | 22 | 1018.2 |
| 20260831085535 | 70 | 219 | 4.3 | 8.7 | 0.00 | 0.00 | 0.00 | 22 | 1018.2 |
| 20260831085036 | 69 | 218 | 4.3 | 8.7 | 0.00 | 0.00 | 0.00 | 23 | 1018.2 |
| 20260831084536 | 69 | 233 | 6.1 | 9.6 | 0.00 | 0.00 | 0.00 | 23 | 1018.3 |
| 20260831084031 | 68 | 233 | 3.5 | 8.7 | 0.00 | 0.00 | 0.00 | 24 | 1018.3 |
| 20260831083529 | 65 | 229 | 1.7 | 7.0 | 0.00 | 0.00 | 0.00 | 25 | 1018.4 |
| 20260831083028 | 63 | 194 | 0.9 | 3.5 | 0.00 | 0.00 | 0.00 | 27 | 1018.4 |
| 20260831082531 | 62 | 229 | 0.0 | 2.6 | 0.00 | 0.00 | 0.00 | 25 | 1018.4 |
| 20260831082028 | 62 | 221 | 0.9 | 1.7 | 0.00 | 0.00 | 0.00 | 25 | 1018.4 |
| 20260831081534 | 62 | 215 | 0.0 | 2.6 | 0.00 | 0.00 | 0.00 | 25 | 1018.4 |
| 20260831081028 | 62 | 214 | 0.0 | 3.5 | 0.00 | 0.00 | 0.00 | 26 | 1018.4 |
| 20260831080528 | 61 | 240 | 0.0 | 3.5 | 0.00 | 0.00 | 0.00 | 26 | 1018.4 |
| 20260831080026 | 61 | 94 | 0.0 | 4.3 | 0.00 | 0.00 | 0.00 | 27 | 1018.4 |
| 20260831075526 | 61 | 40 | 1.7 | 4.3 | 0.00 | 0.00 | 0.00 | 27 | 1018.5 |
| 20260831075029 | 61 | 29 | 0.9 | 2.6 | 0.00 | 0.00 | 0.00 | 26 | 1018.4 |
| 20260831074528 | 61 | 355 | 0.0 | 1.7 | 0.00 | 0.00 | 0.00 | 26 | 1018.4 |
| 20260831074026 | 61 | 360 | 0.0 | 1.7 | 0.00 | 0.00 | 0.00 | 26 | 1018.3 |
| 20260831073524 | 61 | 360 | 0.0 | 1.7 | 0.00 | 0.00 | 0.00 | 26 | 1018.4 |
| 20260831073023 | 62 | 329 | 0.0 | 2.6 | 0.00 | 0.00 | 0.00 | 25 | 1018.4 |
| 20260831072521 | 62 | 355 | 0.0 | 2.6 | 0.00 | 0.00 | 0.00 | 25 | 1018.3 |
| 20260831072020 | 63 | 355 | 0.9 | 2.6 | 0.00 | 0.00 | 0.00 | 25 | 1018.2 |
| 20260831071519 | 64 | 330 | 0.0 | 1.7 | 0.00 | 0.00 | 0.00 | 24 | 1018.2 |
| 20260831071018 | 64 | 250 | 0.0 | 1.7 | 0.00 | 0.00 | 0.00 | 23 | 1018.2 |
| 20260831070521 | 65 | 250 | 0.0 | 2.6 | 0.00 | 0.00 | 0.00 | 21 | 1018.1 |
| 20260831070017 | 65 | 231 | 0.0 | 2.6 | 0.00 | 0.00 | 0.00 | 22 | 1018.2 |
| 20260831065517 | 64 | 267 | 0.0 | 2.6 | 0.00 | 0.00 | 0.00 | 23 | 1018.2 |
| 20260831065015 | 65 | 267 | 0.0 | 1.7 | 0.00 | 0.00 | 0.00 | 22 | 1018.2 |
| 20260831064515 | 65 | 267 | 0.0 | 1.7 | 0.00 | 0.00 | 0.00 | 22 | 1018.2 |
| 20260831064014 | 65 | 267 | 0.0 | 2.6 | 0.00 | 0.00 | 0.00 | 22 | 1018.2 |
| 20260831063513 | 65 | 229 | 0.9 | 2.6 | 0.00 | 0.00 | 0.00 | 21 | 1018.2 |
| 20260831063014 | 65 | 217 | 0.9 | 1.7 | 0.00 | 0.00 | 0.00 | 21 | 1018.2 |
| 20260831062515 | 65 | 216 | 0.9 | 1.7 | 0.00 | 0.00 | 0.00 | 21 | 1018.3 |
| 20260831062014 | 65 | 217 | 0.9 | 1.7 | 0.00 | 0.00 | 0.00 | 21 | 1018.3 |
| 20260831061513 | 65 | 217 | 0.0 | 2.6 | 0.00 | 0.00 | 0.00 | 21 | 1018.2 |
| 20260831061018 | 65 | 217 | 0.0 | 2.6 | 0.00 | 0.00 | 0.00 | 21 | 1018.2 |
| 20260831060514 | 66 | 213 | 0.9 | 1.7 | 0.00 | 0.00 | 0.00 | 21 | 1018.2 |
| 20260831060012 | 67 | 207 | 0.9 | 1.7 | 0.00 | 0.00 | 0.00 | 20 | 1018.1 |
| 20260831055516 | 67 | 206 | 0.9 | 2.6 | 0.00 | 0.00 | 0.00 | 20 | 1018.2 |
| 20260831055010 | 67 | 208 | 0.9 | 2.6 | 0.00 | 0.00 | 0.00 | 20 | 1018.2 |
| 20260831054510 | 68 | 205 | 1.7 | 2.6 | 0.00 | 0.00 | 0.00 | 20 | 1018.3 |
| 20260831054010 | 68 | 194 | 0.9 | 1.7 | 0.00 | 0.00 | 0.00 | 20 | 1018.3 |
| 20260831053515 | 69 | 192 | 0.0 | 0.9 | 0.00 | 0.00 | 0.00 | 20 | 1018.3 |
| 20260831053032 | 69 | 192 | 0.0 | 0.9 | 0.00 | 0.00 | 0.00 | 20 | 1018.3 |
| 20260831052510 | 70 | 192 | 0.0 | 2.6 | 0.00 | 0.00 | 0.00 | 20 | 1018.3 |
| 20260831052009 | 69 | 192 | 0.9 | 2.6 | 0.00 | 0.00 | 0.00 | 20 | 1018.3 |
| 20260831051509 | 69 | 196 | 1.7 | 2.6 | 0.00 | 0.00 | 0.00 | 20 | 1018.3 |
| 20260831051009 | 69 | 208 | 0.9 | 2.6 | 0.00 | 0.00 | 0.00 | 20 | 1018.4 |
| 20260831050509 | 69 | 199 | 0.9 | 2.6 | 0.00 | 0.00 | 0.00 | 20 | 1018.3 |
| 20260831050010 | 69 | 213 | 0.9 | 2.6 | 0.00 | 0.00 | 0.00 | 19 | 1018.3 |
| 20260831045509 | 69 | 226 | 0.9 | 1.7 | 0.00 | 0.00 | 0.00 | 20 | 1018.4 |
| 20260831045008 | 69 | 238 | 0.0 | 1.7 | 0.00 | 0.00 | 0.00 | 20 | 1018.3 |
| 20260831044512 | 69 | 238 | 0.0 | 1.7 | 0.00 | 0.00 | 0.00 | 20 | 1018.3 |
| 20260831044008 | 69 | 238 | 0.9 | 2.6 | 0.00 | 0.00 | 0.00 | 19 | 1018.2 |
| 20260831043508 | 69 | 236 | 0.9 | 2.6 | 0.00 | 0.00 | 0.00 | 20 | 1018.2 |
| 20260831043007 | 69 | 218 | 0.9 | 2.6 | 0.00 | 0.00 | 0.00 | 19 | 1018.2 |
| 20260831042507 | 69 | 218 | 0.9 | 2.6 | 0.00 | 0.00 | 0.00 | 19 | 1018.3 |
| 20260831042007 | 70 | 223 | 1.7 | 2.6 | 0.00 | 0.00 | 0.00 | 19 | 1018.2 |
| 20260831041507 | 70 | 203 | 0.9 | 2.6 | 0.00 | 0.00 | 0.00 | 20 | 1018.1 |
| 20260831041007 | 71 | 218 | 0.9 | 2.6 | 0.00 | 0.00 | 0.00 | 20 | 1018.1 |
| 20260831040507 | 71 | 235 | 0.9 | 1.7 | 0.00 | 0.00 | 0.00 | 20 | 1018.0 |
| 20260831040007 | 72 | 245 | 0.9 | 1.7 | 0.00 | 0.00 | 0.00 | 20 | 1017.9 |
| 20260831035506 | 72 | 326 | 0.0 | 1.7 | 0.00 | 0.00 | 0.00 | 19 | 1017.8 |
| 20260831035006 | 73 | 326 | 0.0 | 2.6 | 0.00 | 0.00 | 0.00 | 19 | 1017.8 |
| 20260831034506 | 73 | 326 | 0.0 | 4.3 | 0.00 | 0.00 | 0.00 | 19 | 1017.8 |
| 20260831034005 | 73 | 351 | 1.7 | 4.3 | 0.00 | 0.00 | 0.00 | 20 | 1017.7 |
| 20260831033505 | 73 | 281 | 1.7 | 3.5 | 0.00 | 0.00 | 0.00 | 19 | 1017.6 |
| 20260831033012 | 74 | 340 | 0.9 | 5.2 | 0.00 | 0.00 | 0.00 | 19 | 1017.6 |
| 20260831032505 | 74 | 296 | 2.6 | 5.2 | 0.00 | 0.00 | 0.00 | 19 | 1017.5 |
| 20260831032009 | 74 | 280 | 0.0 | 6.1 | 0.00 | 0.00 | 0.00 | 18 | 1017.4 |
| 20260831031505 | 74 | 257 | 2.6 | 7.0 | 0.00 | 0.00 | 0.00 | 18 | 1017.4 |
| 20260831031008 | 74 | 268 | 3.5 | 7.0 | 0.00 | 0.00 | 0.00 | 18 | 1017.2 |
| 20260831030504 | 75 | 281 | 0.9 | 4.3 | 0.00 | 0.00 | 0.00 | 18 | 1017.2 |
| 20260831030007 | 75 | 11 | 1.7 | 7.0 | 0.00 | 0.00 | 0.00 | 17 | 1017.1 |
| 20260831025505 | 76 | 267 | 1.7 | 7.0 | 0.00 | 0.00 | 0.00 | 16 | 1016.9 |
| 20260831025003 | 77 | 342 | 0.9 | 4.3 | 0.00 | 0.00 | 0.00 | 15 | 1016.8 |
| 20260831024504 | 78 | 5 | 0.0 | 2.6 | 0.00 | 0.00 | 0.00 | 14 | 1016.7 |
| 20260831024006 | 79 | 47 | 0.0 | 0.0 | 0.00 | 0.00 | 0.00 | 13 | 1016.6 |
| 20260831023504 | 79 | 46 | 0.0 | 0.9 | 0.00 | 0.00 | 0.00 | 13 | 1016.6 |
| 20260831023003 | 80 | 46 | 0.0 | 0.9 | 0.00 | 0.00 | 0.00 | 14 | 1016.6 |
| 20260831022506 | 80 | 45 | 0.0 | 0.9 | 0.00 | 0.00 | 0.00 | 14 | 1016.6 |
| 20260831022002 | 80 | 45 | 0.0 | 0.9 | 0.00 | 0.00 | 0.00 | 14 | 1016.6 |
| 20260831021502 | 81 | 45 | 0.0 | 2.6 | 0.00 | 0.00 | 0.00 | 13 | 1016.5 |
| 20260831021004 | 82 | 39 | 0.0 | 3.5 | 0.00 | 0.00 | 0.00 | 13 | 1016.5 |
| 20260831020504 | 83 | 24 | 0.9 | 3.5 | 0.00 | 0.00 | 0.00 | 12 | 1016.6 |
| 20260831020004 | 84 | 29 | 0.9 | 3.5 | 0.00 | 0.00 | 0.00 | 12 | 1016.5 |
| 20260831015502 | 84 | 40 | 0.9 | 3.5 | 0.00 | 0.00 | 0.00 | 12 | 1016.5 |
| 20260831015001 | 85 | 42 | 0.9 | 4.3 | 0.00 | 0.00 | 0.00 | 12 | 1016.6 |
| 20260831014501 | 85 | 78 | 0.9 | 4.3 | 0.00 | 0.00 | 0.00 | 12 | 1016.6 |
| 20260831014002 | 86 | 350 | 0.9 | 3.5 | 0.00 | 0.00 | 0.00 | 11 | 1016.5 |
| 20260831013600 | 86 | 34 | 1.7 | 4.3 | 0.00 | 0.00 | 0.00 | 12 | 1016.5 |
| 20260831013101 | 86 | 74 | 1.7 | 4.3 | 0.00 | 0.00 | 0.00 | 11 | 1016.4 |
| 20260831012600 | 87 | 49 | 0.0 | 2.6 | 0.00 | 0.00 | 0.00 | 11 | 1016.5 |
| 20260831012102 | 87 | 84 | 0.0 | 4.3 | 0.00 | 0.00 | 0.00 | 11 | 1016.5 |
| 20260831011607 | 86 | 32 | 0.0 | 4.3 | 0.00 | 0.00 | 0.00 | 11 | 1016.5 |
| 20260831011059 | 86 | 190 | 0.0 | 4.3 | 0.00 | 0.00 | 0.00 | 11 | 1016.5 |
| 20260831010559 | 86 | 198 | 1.7 | 4.3 | 0.00 | 0.00 | 0.00 | 11 | 1016.5 |
| 20260831010058 | 88 | 109 | 1.7 | 5.2 | 0.00 | 0.00 | 0.00 | 10 | 1016.5 |
| 20260831005601 | 88 | 24 | 0.9 | 5.2 | 0.00 | 0.00 | 0.00 | 11 | 1016.7 |
| 20260831005057 | 87 | 38 | 1.7 | 5.2 | 0.00 | 0.00 | 0.00 | 11 | 1016.7 |
| 20260831004559 | 87 | 55 | 2.6 | 4.3 | 0.00 | 0.00 | 0.00 | 11 | 1016.7 |
| 20260831004056 | 87 | 68 | 0.9 | 4.3 | 0.00 | 0.00 | 0.00 | 11 | 1016.8 |
| 20260831003555 | 88 | 139 | 0.9 | 4.3 | 0.00 | 0.00 | 0.00 | 10 | 1016.8 |
| 20260831003055 | 88 | 86 | 0.9 | 6.1 | 0.00 | 0.00 | 0.00 | 11 | 1016.8 |
| 20260831002555 | 88 | 300 | 1.7 | 6.1 | 0.00 | 0.00 | 0.00 | 11 | 1016.9 |
| 20260831002055 | 88 | 5 | 2.6 | 6.1 | 0.00 | 0.00 | 0.00 | 11 | 1016.9 |
| 20260831001554 | 88 | 36 | 2.6 | 7.8 | 0.00 | 0.00 | 0.00 | 11 | 1016.9 |
| 20260831001054 | 88 | 67 | 1.7 | 7.8 | 0.00 | 0.00 | 0.00 | 11 | 1016.9 |
| 20260831000554 | 89 | 42 | 4.3 | 7.8 | 0.00 | 0.00 | 0.00 | 10 | 1017.0 |
| 20260831000054 | 89 | 117 | 0.9 | 5.2 | 0.00 | 0.00 | 0.00 | 10 | 1017.0 |
| 20260830235552 | 89 | 40 | 0.0 | 5.2 | 0.00 | 0.00 | 0.00 | 10 | 1017.1 |
| 20260830235053 | 90 | 49 | 1.7 | 6.1 | 0.00 | 0.00 | 0.00 | 11 | 1017.2 |
| 20260830234606 | 90 | 39 | 2.6 | 5.2 | 0.00 | 0.00 | 0.00 | 10 | 1017.1 |
| 20260830234053 | 91 | 355 | 1.7 | 4.3 | 0.00 | 0.00 | 0.00 | 10 | 1017.1 |
| 20260830233550 | 90 | 76 | 0.0 | 4.3 | 0.00 | 0.00 | 0.00 | 10 | 1017.2 |
| 20260830233050 | 89 | 41 | 1.7 | 3.5 | 0.00 | 0.00 | 0.00 | 10 | 1017.3 |
| 20260830232550 | 89 | 58 | 1.7 | 3.5 | 0.00 | 0.00 | 0.00 | 10 | 1017.3 |
| 20260830232049 | 88 | 5 | 0.0 | 3.5 | 0.00 | 0.00 | 0.00 | 10 | 1017.4 |
| 20260830231548 | 89 | 200 | 1.7 | 3.5 | 0.00 | 0.00 | 0.00 | 10 | 1017.4 |
| 20260830231047 | 90 | 57 | 0.9 | 7.8 | 0.00 | 0.00 | 0.00 | 10 | 1017.5 |
| 20260830230546 | 89 | 79 | 2.6 | 7.8 | 0.00 | 0.00 | 0.00 | 10 | 1017.6 |
| 20260830230046 | 89 | 102 | 0.9 | 8.7 | 0.00 | 0.00 | 0.00 | 11 | 1017.7 |
| 20260830225545 | 89 | 71 | 2.6 | 8.7 | 0.00 | 0.00 | 0.00 | 10 | 1017.7 |
| 20260830225043 | 90 | 284 | 1.7 | 5.2 | 0.00 | 0.00 | 0.00 | 10 | 1017.8 |
| 20260830224544 | 90 | 295 | 1.7 | 7.0 | 0.00 | 0.00 | 0.00 | 10 | 1017.9 |
| 20260830224042 | 90 | 348 | 2.6 | 7.0 | 0.00 | 0.00 | 0.00 | 10 | 1018.0 |
| 20260830223542 | 89 | 355 | 2.6 | 7.0 | 0.00 | 0.00 | 0.00 | 10 | 1018.1 |
| 20260830223041 | 90 | 53 | 1.7 | 6.1 | 0.00 | 0.00 | 0.00 | 10 | 1018.3 |
| 20260830222540 | 90 | 16 | 2.6 | 7.8 | 0.00 | 0.00 | 0.00 | 10 | 1018.3 |
| 20260830222040 | 90 | 36 | 3.5 | 7.8 | 0.00 | 0.00 | 0.00 | 10 | 1018.3 |
| 20260830221545 | 89 | 44 | 0.9 | 5.2 | 0.00 | 0.00 | 0.00 | 11 | 1018.4 |
| 20260830221038 | 88 | 331 | 0.9 | 7.0 | 0.00 | 0.00 | 0.00 | 11 | 1018.5 |
| 20260830220537 | 88 | 35 | 1.7 | 11.3 | 0.00 | 0.00 | 0.00 | 11 | 1018.7 |
| 20260830220045 | 89 | 25 | 5.2 | 11.3 | 0.00 | 0.00 | 0.00 | 11 | 1018.8 |
| 20260830215538 | 88 | 59 | 3.5 | 7.8 | 0.00 | 0.00 | 0.00 | 11 | 1018.8 |
| 20260830215035 | 88 | 59 | 2.6 | 7.0 | 0.00 | 0.00 | 0.00 | 11 | 1018.9 |
| 20260830214541 | 88 | 19 | 2.6 | 8.7 | 0.00 | 0.00 | 0.00 | 11 | 1019.0 |
| 20260830214034 | 88 | 350 | 3.5 | 8.7 | 0.00 | 0.00 | 0.00 | 11 | 1019.1 |
| 20260830213533 | 88 | 61 | 3.5 | 8.7 | 0.00 | 0.00 | 0.00 | 11 | 1019.1 |
| 20260830213045 | 87 | 71 | 3.5 | 11.3 | 0.00 | 0.00 | 0.00 | 11 | 1019.2 |
| 20260830212532 | 87 | 44 | 4.3 | 11.3 | 0.00 | 0.00 | 0.00 | 11 | 1019.1 |
| 20260830212032 | 87 | 72 | 3.5 | 7.8 | 0.00 | 0.00 | 0.00 | 11 | 1019.2 |
| 20260830211550 | 87 | 336 | 2.6 | 9.6 | 0.00 | 0.00 | 0.00 | 11 | 1019.4 |
| 20260830211035 | 86 | 17 | 5.2 | 9.6 | 0.00 | 0.00 | 0.00 | 11 | 1019.4 |
| 20260830210531 | 87 | 89 | 3.5 | 10.4 | 0.00 | 0.00 | 0.00 | 11 | 1019.4 |
| 20260830210048 | 87 | 28 | 4.3 | 12.2 | 0.00 | 0.00 | 0.00 | 11 | 1019.5 |
| 20260830205529 | 87 | 51 | 4.3 | 12.2 | 0.00 | 0.00 | 0.00 | 11 | 1019.5 |
| 20260830205028 | 86 | 42 | 2.6 | 8.7 | 0.00 | 0.00 | 0.00 | 11 | 1019.6 |
| 20260830204527 | 85 | 360 | 1.7 | 7.8 | 0.00 | 0.00 | 0.00 | 12 | 1019.6 |
| 20260830204027 | 86 | 44 | 3.5 | 8.7 | 0.00 | 0.00 | 0.00 | 11 | 1019.8 |
| 20260830203529 | 85 | 61 | 2.6 | 8.7 | 0.00 | 0.00 | 0.00 | 12 | 1019.8 |
| 20260830203039 | 85 | 36 | 3.5 | 9.6 | 0.00 | 0.00 | 0.00 | 12 | 1019.9 |
| 20260830202526 | 85 | 82 | 4.3 | 9.6 | 0.00 | 0.00 | 0.00 | 12 | 1020.1 |
| 20260830202028 | 84 | 57 | 3.5 | 8.7 | 0.00 | 0.00 | 0.00 | 12 | 1019.9 |
| 20260830201526 | 84 | 128 | 3.5 | 9.6 | 0.00 | 0.00 | 0.00 | 12 | 1020.0 |
| 20260830201025 | 84 | 49 | 2.6 | 9.6 | 0.00 | 0.00 | 0.00 | 12 | 1020.1 |
| 20260830200525 | 85 | 61 | 4.3 | 9.6 | 0.00 | 0.00 | 0.00 | 12 | 1020.2 |
| 20260830200025 | 87 | 50 | 1.7 | 6.1 | 0.00 | 0.00 | 0.00 | 11 | 1020.1 |
| 20260830195523 | 86 | 79 | 2.6 | 8.7 | 0.00 | 0.00 | 0.00 | 12 | 1020.2 |
| 20260830195022 | 85 | 355 | 2.6 | 8.7 | 0.00 | 0.00 | 0.00 | 12 | 1020.4 |
| 20260830194521 | 84 | 60 | 2.6 | 9.6 | 0.00 | 0.00 | 0.00 | 12 | 1020.5 |
| 20260830194023 | 84 | 17 | 4.3 | 9.6 | 0.00 | 0.00 | 0.00 | 12 | 1020.5 |
| 20260830193523 | 85 | 51 | 4.3 | 9.6 | 0.00 | 0.00 | 0.00 | 12 | 1020.5 |
| 20260830193022 | 84 | 34 | 1.7 | 7.8 | 0.00 | 0.00 | 0.00 | 12 | 1020.6 |
| 20260830192519 | 83 | 94 | 1.7 | 5.2 | 0.00 | 0.00 | 0.00 | 13 | 1020.7 |
| 20260830192019 | 82 | 28 | 0.9 | 6.1 | 0.00 | 0.00 | 0.00 | 13 | 1020.8 |
| 20260830191523 | 82 | 49 | 1.7 | 7.8 | 0.00 | 0.00 | 0.00 | 13 | 1020.9 |
| 20260830191018 | 82 | 81 | 2.6 | 7.8 | 0.00 | 0.00 | 0.00 | 13 | 1020.9 |
| 20260830190518 | 81 | 49 | 1.7 | 7.8 | 0.00 | 0.00 | 0.00 | 13 | 1021.0 |
| 20260830190018 | 81 | 60 | 2.6 | 7.8 | 0.00 | 0.00 | 0.00 | 13 | 1021.1 |
| 20260830185518 | 81 | 97 | 2.6 | 7.8 | 0.00 | 0.00 | 0.00 | 13 | 1021.3 |
| 20260830185017 | 81 | 26 | 1.7 | 8.7 | 0.00 | 0.00 | 0.00 | 13 | 1021.3 |
| 20260830184516 | 82 | 80 | 3.5 | 8.7 | 0.00 | 0.00 | 0.00 | 13 | 1021.4 |
| 20260830184017 | 82 | 51 | 1.7 | 6.1 | 0.00 | 0.00 | 0.00 | 13 | 1021.4 |
| 20260830183519 | 82 | 53 | 0.9 | 7.8 | 0.00 | 0.00 | 0.00 | 13 | 1021.4 |
| 20260830183015 | 81 | 34 | 0.9 | 6.1 | 0.00 | 0.00 | 0.00 | 13 | 1021.4 |
| 20260830182513 | 81 | 42 | 1.7 | 5.2 | 0.00 | 0.00 | 0.00 | 14 | 1021.5 |
| 20260830182014 | 80 | 67 | 1.7 | 6.1 | 0.00 | 0.00 | 0.00 | 14 | 1021.6 |
| 20260830181512 | 79 | 40 | 3.5 | 7.0 | 0.00 | 0.00 | 0.00 | 14 | 1021.6 |
| 20260830181010 | 78 | 55 | 2.6 | 5.2 | 0.00 | 0.00 | 0.00 | 15 | 1021.7 |
| 20260830180512 | 78 | 67 | 2.6 | 7.0 | 0.00 | 0.00 | 0.00 | 14 | 1021.7 |
| 20260830180019 | 78 | 87 | 2.6 | 7.0 | 0.00 | 0.00 | 0.00 | 15 | 1021.8 |
| 20260830175508 | 78 | 67 | 0.0 | 4.3 | 0.00 | 0.00 | 0.00 | 17 | 1021.8 |